Terminal Aerodrome Forecast
Issued by NWS

Home | Current Version | Previous Version | Text Only | Print | Product List | Glossary On
Versions: 1 2 3 4 5 6 7 8 9 10 11 12 13
000
FTUS46 KSGX 220500
TAFONT
TAF
KONT 220530Z 2206/2312 VRB05KT 5SM HZ SCT200=

USA.gov is the U.S. government's official web portal to all federal, state and local government web resources and services.